Fort Rucker / Ozark, AL

2:41 PM CST on November 19, 2017 (GMT -0600)
Fort Rucker / Ozark

Weather History for KLOR - October, 2013

Change the Weather History Date:

Sunday, October 20, 2013

  Actual Average (KOZR) Record (KOZR)
Temperature  
Mean Temperature 54 °F -  
Max Temperature 75 °F 75 °F 89 °F (1998)
Min Temperature 32 °F 52 °F 37 °F (1996)
Degree Days  
Heating Degree Days 12    
Growing Degree Days 4 (Base 50)    
Moisture  
Dew Point 54 °F    
Average Humidity 80    
Maximum Humidity 100    
Minimum Humidity 45    
Precipitation  
Precipitation 0.00 in - - ()
Sea Level Pressure  
Sea Level Pressure 30.00 in    
Wind  
Wind Speed 2 mph (NNE)    
Max Wind Speed 8 mph    
Max Gust Speed -    
Visibility 8 miles    
Events      
Averages and records for this station are not official NWS values.
T = Trace of Precipitation, MM = Missing Value Source: NWS Daily Summary

Daily Weather History Graph

Daily Weather History Graph

Search for Another Location

Airport or City:

Trip Planner

Search our weather history database for the weather conditions in past years. The results will help you decide how hot, cold, wet, or windy it might be!

Date:

Astronomy

Oct. 20, 2013 Rise Set
Actual Time 6:49 AM CDT 6:05 PM CDT
Civil Twilight 6:25 AM CDT 6:29 PM CDT
Nautical Twilight 5:56 AM CDT 6:58 PM CDT
Astronomical Twilight 5:28 AM CDT 7:26 PM CDT
Moon 7:20 PM CDT (10/20) 8:20 AM CDT (10/20)
Length of Visible Light 12h 04m
Length of Day
11h 15m
Full, 97% of the Moon is Illuminated
Oct 20
Full
Oct 26
Last Quarter
Nov 3
New
Nov 9
First Quarter
Nov 17
Full

Hourly Weather History & Observations

Time (CDT) Temp. Dew Point Humidity Pressure Visibility Wind Dir Wind Speed Gust Speed Precip Events Conditions
12:53 AM 59.0 °F 57.0 °F 93% 29.97 in 10.0 mi Calm Calm - N/A   Mostly Cloudy
1:53 AM 59.0 °F 57.0 °F 93% 29.98 in 9.0 mi Calm Calm - N/A   Scattered Clouds
2:53 AM 57.0 °F 55.9 °F 96% 29.98 in 7.0 mi Calm Calm - N/A   Mostly Cloudy
3:53 AM 57.0 °F 55.0 °F 93% 29.98 in 6.0 mi Calm Calm - N/A   Partly Cloudy
4:53 AM 55.9 °F 54.0 °F 93% 29.98 in 8.0 mi Calm Calm - N/A   Clear
5:53 AM 55.0 °F 54.0 °F 96% 29.99 in 7.0 mi NNE 3.5 mph - N/A   Clear
6:39 AM 55.4 °F 53.6 °F 94% 30.00 in 6.0 mi NNE 5.8 mph - N/A   Scattered Clouds
6:50 AM 55.4 °F 53.6 °F 94% 30.00 in 5.0 mi North 6.9 mph - N/A   Mostly Cloudy
6:53 AM 55.9 °F 54.0 °F 93% 30.00 in 4.0 mi NNE 8.1 mph - N/A   Mostly Cloudy
7:32 AM 55.4 °F 53.6 °F 94% 30.01 in 4.0 mi NNE 4.6 mph - N/A   Scattered Clouds
7:53 AM 57.9 °F 55.0 °F 90% 30.02 in 6.0 mi North 4.6 mph - N/A   Clear
8:53 AM 62.1 °F 55.0 °F 78% 30.04 in 10.0 mi NE 6.9 mph - N/A   Clear
9:53 AM 64.9 °F 54.0 °F 68% 30.04 in 10.0 mi NE 6.9 mph - N/A   Partly Cloudy
10:53 AM 68.0 °F 54.0 °F 61% 30.04 in 10.0 mi East 4.6 mph - N/A   Clear
11:53 AM 72.0 °F 53.1 °F 51% 30.04 in 10.0 mi Variable 5.8 mph - N/A   Clear
12:53 PM 73.9 °F 53.1 °F 48% 30.01 in 10.0 mi Calm Calm - N/A   Clear
1:53 PM 75.0 °F 53.1 °F 46% 29.99 in 10.0 mi Calm Calm - N/A   Clear
2:53 PM 75.0 °F 53.1 °F 46% 29.96 in 10.0 mi Calm Calm - N/A   Clear
3:53 PM 75.9 °F 53.1 °F 45% 29.97 in 10.0 mi Calm Calm - N/A   Scattered Clouds
4:53 PM 75.0 °F 53.1 °F 46% 29.98 in 10.0 mi Calm Calm - N/A   Partly Cloudy
5:53 PM 66.0 °F 57.0 °F 73% 29.98 in 10.0 mi Calm Calm - N/A   Clear
6:00 PM 32.0 °F 32.0 °F 100% - - North - - N/A   Unknown
6:53 PM 61.0 °F 57.0 °F 87% 29.99 in 10.0 mi Calm Calm - N/A   Partly Cloudy
7:53 PM 60.1 °F 57.0 °F 90% 30.01 in 10.0 mi Calm Calm - N/A   Clear
8:53 PM 57.9 °F 55.9 °F 93% 30.01 in 10.0 mi Calm Calm - N/A   Clear
9:53 PM 57.0 °F 55.0 °F 93% 30.02 in 9.0 mi Calm Calm - N/A   Clear
10:53 PM 57.9 °F 55.9 °F 93% 30.02 in 8.0 mi Calm Calm - N/A   Partly Cloudy
11:53 PM 59.0 °F 55.0 °F 87% 30.01 in 10.0 mi NNE 3.5 mph - N/A   Scattered Clouds